Погода в Тарлаке

Филиппины     15°29′04″N   120°35′39″E
темп.,
°C
ветер,
м/с
пор.,
м/с
влажн.,
%
обл.,
%
осадки,
мм/ч
давл.,
гПа
погр.,
м
27 января, чт
чт2723:00+24з118294 0.4 101153
02:00+24юз118580 0.8 101026
05:00+23юз118330 0.1 101014
08:00+26ююз117445 0.1 1012230
11:00+30вюв345865 0.0 10111233
14:00+31вюв565296 0.1 10081735
17:00+29вюв675711 0.1 1008807
20:00+25юв37707 0.1 1011278
28 января, пт
пт2823:00+24ююз12755 0.0 101135
02:00+24ю117572 0.0 101015
05:00+23ююз117894 0.0 101014
08:00+26юв227090 0.0 1012237
11:00+31юв335343 0.0 10111113
14:00+34юв454356 0.0 10071862
17:00+32ю564897 0.0 1007730
20:00+26ссв237459 0.9 101057
29 января, сб
сб2923:00+24юз118511 1.7 101227
02:00+23юз01885 2.8 101011
05:00+23з11905 0.0 101011
08:00+25ююз008011 0.0 1011219
11:00+30ссв225813 0.0 10101161
14:00+32с2151100 0.2 10071461
17:00+29ссз3568100 1.6 1007201
20:00+25зсз2384100 3.3 100988
30 января, вс
вс3023:00+24з118575 2.0 100921
02:00+24юз11875 2.0 100911
05:00+23юз118835 0.0 100811
08:00+25ю1179100 0.0 1010218
11:00+30юв1159100 0.0 10101089
14:00+32сз224996 0.4 10071766
17:00+29ссз356494 1.6 1007402
20:00+24с258938 5.6 1010157
31 января, пн
пн3123:00+23ююз129377 6.6 101173
02:00+23з119197 7.0 101066
05:00+24ююв118998 0.3 101074
08:00+25юв358172 0.3 1012570
11:00+28юв346245 0.0 10121165
14:00+31вюв335118 0.0 10091552
17:00+29юв455698 0.0 1009425
20:00+26юв366678 0.0 1012283